Flag for U.S.A. Weather past 2 weeks in Boise, Idaho, U.S.A.

Now
61 °F

Sunny.


Feels Like: 61 °F
Forecast: 60 / 77 °F
Wind: 16 mph from Northwest

Location: Boise Air Terminal

Current Time: Jul 24, 2014 at 9:58:25 AM

Latest Report: Jul 24, 2014 at 8:53 AM


Visibility: 10 mi

Pressure: 30.12 "Hg

Humidity: 50%

Dew point: 42 °F

Location of BoiseLocation

Historic Weather in Boise — Graph

°F

Boise temperature yesterday

Maximum temperature yesterday: 94 °F (at 4:53 PM)
Minimum temperature yesterday: 63 °F (at 6:53 AM)
Average temperature yesterday: 80 °F

Past Weeks' High & Low Weather Summary

 TemperatureHumidityPressure
High102 °F (Jul 13, 6:53 PM)81% (Jul 23, 6:53 AM)30.12 "Hg (Jul 23, 6:53 AM)
Low58 °F (Jul 24, 6:53 AM)7% (Jul 18, 3:53 PM)29.63 "Hg (Jul 20, 6:53 PM)
Average82 °F31%29.85 "Hg
* Reported Jul 9 8:53 AM — Jul 24 8:53 AM, Boise, Weather by CustomWeather, © 2014

Note: Actual official high and low records may vary slightly from our data, if they occured in-between our weather recording intervals... More about our weather records

Advertising

Boise weather history for previous 24 hours

 ConditionsComfort  
Time TempWeatherWind HumidityBarometerVisibility
8:53 AM
Jul 24
61 °FSunny.16 mph50%30.12 "Hg10 mi
7:53 AM60 °FClear.14 mph53%30.09 "Hg10 mi
6:53 AM58 °FClear.8 mph62%30.06 "Hg10 mi
5:53 AM59 °FClear.8 mph62%30.03 "Hg10 mi
4:53 AM61 °FClear.10 mph60%29.99 "Hg10 mi
3:53 AM63 °FClear.7 mph58%29.97 "Hg10 mi
2:53 AM65 °FClear.13 mph54%29.94 "Hg10 mi
1:53 AM68 °FClear.9 mph49%29.91 "Hg10 mi
12:53 AM72 °FClear.18 mph41%29.88 "Hg10 mi
11:53 PM
Jul 23
78 °FClear.7 mph23%29.83 "Hg10 mi
10:53 PM81 °FSunny.9 mph22%29.83 "Hg10 mi
9:53 PM83 °FSunny.8 mph24%29.81 "Hg10 mi
8:53 PM89 °FSunny.7 mph19%29.79 "Hg10 mi
7:53 PM93 °FSunny.7 mph14%29.78 "Hg10 mi
6:53 PM94 °FSunny.10 mph14%29.78 "Hg10 mi
5:53 PM94 °FPassing clouds.7 mph17%29.79 "Hg10 mi
4:53 PM94 °FSunny.8 mph17%29.80 "Hg10 mi
3:53 PM92 °FSunny.3 mph18%29.84 "Hg10 mi
2:53 PM90 °FSunny.No wind19%29.88 "Hg10 mi
1:53 PM89 °FSunny.5 mph19%29.90 "Hg10 mi
12:53 PM87 °FSunny.3 mph22%29.93 "Hg10 mi
11:53 AM82 °FSunny.3 mph37%29.95 "Hg10 mi
10:53 AM78 °FSunny.No wind43%29.96 "Hg10 mi
9:53 AM72 °FSunny.No wind57%29.98 "Hg10 mi
Weather by CustomWeather, © 2014

See weather overviewHow to use our weather pages